星链-1321 (STARLINK-1321 )

导读 | 星芒AI

STARLINK-1321 是 SpaceX Starlink 卫星互联网项目中的第1321颗卫星,属于低轨卫星群的一部分。该卫星于2023年发射,旨在为全球用户提供高速、低延迟的互联网服务。它运行在约550公里高度的近地轨道,配备先进通信设备,支持宽带数据传输。Starlink 项目致力于改善偏远地区网络覆盖,推动全球互联网普及。

基本信息
目录编号:
45573
目录名称:
STARLINK-1321
国际标识:
2020-025AU
轨道中心:
EARTH
卫星名称:
星链-1321
卫星全名:
星链-1321 (STARLINK-1321 )
卫星状态:
在轨 (已飞行2016 天)
发射日期:
2020-04-22 UTC
国别 :
美国 (US)
星等 :
--
轨道信息
数据来源 国际轨道数据 AOE轨道数据
星历时间 2025-10-28T15:29:56+0800
1天前
查看轨道信息
2025-10-28T05:00:00+0800
1天前
查看轨道信息
半长轴 6925.367km 6925.334km
偏心率 0.0001315 0.0000659
轨道倾角 53.055° 53.057°
近地点辐角 89.433° 105.652°
升交点赤经 310.883° 312.853°
平近点角 270.680° 40.864°
近地点 546.321km 546.742km
远地点 548.143km 547.656km
周期 95.593分钟 95.592分钟
每日圈数 15.06394 15.064048
详细信息
固有亮度:
5
最大亮度:
2.5
卫星平台:
Starlink V1.0
覆盖范围:
全球
运营商:
太空探索技术公司
运营商所在国:
美国
制造商(研发单位):
太空探索技术公司
制造商所在国:
美国
使用方式:
暂无
卫星简介
星链(Starlink)计划是由太空探索技术公司(SpaceX)提出的一个巨型低轨卫星互联网星座项目,计划在2019年至2024年间在太空搭建由约1.2万颗卫星组成的“星链”网络,其中1584颗将部署在地球上空550千米处的近地轨道,并从2020年开始工作。该卫星仍在工作。
2D轨道图
3D轨道图
轨道高度分析图
轨道倾角分析图
轨道综合分析图
查看轨道综合分析图